Osceola, WI

3:30 PM CST on December 12, 2019 (GMT -0600)
Simenstad Municipal

Weather History for KOEO - November, 2019

Change the Weather History Date:

Monday, November 11, 2019

  Actual Average (WUND) Record (WUND)
Temperature  
Mean Temperature 11 °F -  
Max Temperature 16 °F - - (-1)
Min Temperature 6 °F - - (-1)
Degree Days  
Heating Degree Days 54    
Moisture  
Dew Point 3 °F    
Average Humidity 65    
Maximum Humidity 82    
Minimum Humidity 54    
Precipitation  
Precipitation 0.00 in - - ()
Sea Level Pressure  
Sea Level Pressure 30.55 in    
Wind  
Wind Speed 9 mph (NW)    
Max Wind Speed 16 mph    
Max Gust Speed 24 mph    
Visibility 10 miles    
Events Snow    
Averages and records for this station are not official NWS values.
T = Trace of Precipitation, MM = Missing Value Source: NWS Daily Summary

Daily Weather History Graph

Daily Weather History Graph

Search for Another Location

Airport or City:

Astronomy

Nov. 11, 2019 Rise Set
Actual Time 7:03 AM CST 4:45 PM CST
Civil Twilight 6:31 AM CST 5:17 PM CST
Nautical Twilight 5:56 AM CST 5:52 PM CST
Astronomical Twilight 5:21 AM CST 6:27 PM CST
Moon 4:45 PM CST (11/11) 5:49 AM CST (11/11)
Length of Visible Light 10h 45m
Length of Day
9h 41m
Waxing Gibbous, 99% of the Moon is Illuminated
Nov 11
Waxing Gibbous
Nov 12
Full
Nov 19
Last Quarter
Nov 26
New
Dec 4
First Quarter

Hourly Weather History & Observations

Time (CST) Temp. Windchill Dew Point Humidity Pressure Visibility Wind Dir Wind Speed Gust Speed Precip Events Conditions
12:15 AM 15.8 °F 2.7 °F 3.4 °F 58% 30.46 in 10.0 mi North 11.5 mph 17.3 mph N/A   Scattered Clouds
12:35 AM 15.3 °F 3.5 °F 2.3 °F 57% 30.46 in 10.0 mi North 9.2 mph 17.3 mph N/A   Clear
12:55 AM 14.9 °F 2.3 °F 2.5 °F 58% 30.46 in 10.0 mi North 10.4 mph - N/A   Clear
1:15 AM 14.9 °F 3.1 °F 3.2 °F 60% 30.47 in 10.0 mi North 9.2 mph - N/A   Clear
1:35 AM 14.7 °F 7.3 °F 3.7 °F 62% 30.48 in 10.0 mi NNW 4.6 mph - N/A   Clear
1:55 AM 14.7 °F 4.8 °F 3.6 °F 61% 30.48 in 10.0 mi NNW 6.9 mph - N/A   Clear
2:15 AM 14.7 °F 4.8 °F 3.7 °F 62% 30.49 in 10.0 mi NNW 6.9 mph - N/A   Clear
2:35 AM 14.5 °F 5.7 °F 3.9 °F 63% 30.50 in 10.0 mi North 5.8 mph - N/A   Clear
2:55 AM 14.5 °F 4.6 °F 4.1 °F 63% 30.50 in 10.0 mi NNW 6.9 mph - N/A   Clear
3:15 AM 14.4 °F 6.9 °F 4.3 °F 64% 30.50 in 10.0 mi NNW 4.6 mph - N/A   Clear
3:35 AM 14.4 °F 5.5 °F 4.3 °F 64% 30.50 in 10.0 mi NNW 5.8 mph - N/A   Clear
3:55 AM 14.0 °F 6.5 °F 4.6 °F 66% 30.49 in 10.0 mi NNW 4.6 mph - N/A   Clear
4:15 AM 13.8 °F 2.7 °F 4.3 °F 66% 30.50 in 10.0 mi NNW 8.1 mph - N/A   Clear
4:35 AM 14.0 °F 5.1 °F 4.6 °F 66% 30.50 in 10.0 mi NNW 5.8 mph - N/A   Clear
4:55 AM 14.0 °F 0.5 °F 4.8 °F 67% 30.51 in 10.0 mi North 11.5 mph 16.1 mph N/A   Clear
5:15 AM 13.8 °F 1.0 °F 3.6 °F 64% 30.52 in 10.0 mi NNW 10.4 mph 16.1 mph N/A   Scattered Clouds
5:35 AM 13.6 °F 0.7 °F 2.8 °F 62% 30.52 in 10.0 mi NNW 10.4 mph - N/A   Mostly Cloudy
5:55 AM 13.6 °F 0.7 °F 2.1 °F 60% 30.52 in 10.0 mi NNW 10.4 mph - N/A   Overcast
6:35 AM 13.6 °F 1.6 °F 2.8 °F 62% 30.53 in 10.0 mi NNW 9.2 mph - N/A   Overcast
6:55 AM 13.5 °F 2.2 °F 2.8 °F 63% 30.53 in 10.0 mi NNW 8.1 mph - N/A   Overcast
7:15 AM 13.5 °F 3.3 °F 3.7 °F 65% 30.53 in 10.0 mi NNW 6.9 mph - N/A   Overcast
7:35 AM 13.6 °F 4.6 °F 4.6 °F 67% 30.54 in 10.0 mi NW 5.8 mph - N/A   Overcast
7:55 AM 13.8 °F 4.9 °F 5.5 °F 70% 30.54 in 10.0 mi NNW 5.8 mph - N/A   Overcast
8:15 AM 13.6 °F 4.6 °F 7.9 °F 78% 30.55 in 4.0 mi NW 5.8 mph - N/A Snow Light Snow
8:35 AM 14.0 °F 3.9 °F 8.1 °F 77% 30.56 in 5.0 mi WNW 6.9 mph - N/A Snow Light Snow
8:55 AM 13.6 °F 0.7 °F 4.1 °F 66% 30.56 in 10.0 mi WNW 10.4 mph - N/A   Overcast
9:15 AM 13.3 °F -1.1 °F 4.1 °F 67% 30.56 in 10.0 mi WNW 12.7 mph 17.3 mph N/A   Overcast
9:55 AM 14.9 °F 2.3 °F 4.1 °F 62% 30.56 in 10.0 mi WNW 10.4 mph - N/A   Scattered Clouds
10:15 AM 15.1 °F -0.1 °F 3.4 °F 60% 30.56 in 10.0 mi WNW 15.0 mph 18.4 mph N/A   Clear
10:35 AM 15.1 °F 1.1 °F 2.8 °F 58% 30.56 in 10.0 mi WNW 12.7 mph - N/A   Mostly Cloudy
10:55 AM 16.0 °F 2.9 °F 3.6 °F 58% 30.56 in 10.0 mi NW 11.5 mph 19.6 mph N/A   Overcast
11:15 AM 15.8 °F 1.4 °F 2.5 °F 56% 30.55 in 10.0 mi WNW 13.8 mph 18.4 mph N/A   Overcast
11:35 AM 15.4 °F 3.0 °F 2.3 °F 56% 30.55 in 10.0 mi NW 10.4 mph 17.3 mph N/A   Overcast
11:55 AM 14.7 °F 3.8 °F 3.0 °F 60% 30.54 in 10.0 mi NNW 8.1 mph 16.1 mph N/A   Overcast
12:15 PM 14.5 °F 1.1 °F 1.9 °F 57% 30.54 in 10.0 mi NW 11.5 mph 18.4 mph N/A   Overcast
12:35 PM 14.7 °F 0.1 °F 1.6 °F 56% 30.53 in 10.0 mi NW 13.8 mph 21.9 mph N/A   Overcast
12:55 PM 15.1 °F -0.6 °F 3.2 °F 59% 30.53 in 10.0 mi NNW 16.1 mph 24.2 mph N/A   Overcast
1:15 PM 14.4 °F 0.2 °F 2.1 °F 58% 30.53 in 10.0 mi NNW 12.7 mph 23.0 mph N/A   Mostly Cloudy
1:35 PM 14.2 °F 0.0 °F 1.4 °F 57% 30.53 in 10.0 mi NW 12.7 mph 20.7 mph N/A   Mostly Cloudy
1:55 PM 13.6 °F -2.4 °F 0.7 °F 56% 30.53 in 10.0 mi NW 16.1 mph 24.2 mph N/A   Scattered Clouds
2:15 PM 14.5 °F -1.3 °F 0.9 °F 55% 30.54 in 10.0 mi WNW 16.1 mph 20.7 mph N/A   Scattered Clouds
2:35 PM 12.9 °F -2.2 °F 0.3 °F 57% 30.54 in 10.0 mi NW 13.8 mph 18.4 mph N/A   Mostly Cloudy
2:55 PM 13.1 °F -2.0 °F 0.5 °F 57% 30.54 in 10.0 mi NW 13.8 mph 21.9 mph N/A   Scattered Clouds
3:15 PM 14.0 °F -0.8 °F -0.0 °F 54% 30.54 in 10.0 mi NW 13.8 mph 20.7 mph N/A   Mostly Cloudy
3:35 PM 13.1 °F -0.7 °F -0.6 °F 54% 30.55 in 10.0 mi WNW 11.5 mph 23.0 mph N/A   Scattered Clouds
3:55 PM 12.9 °F -1.6 °F 1.9 °F 62% 30.56 in 10.0 mi NW 12.7 mph 23.0 mph N/A   Mostly Cloudy
4:15 PM 13.1 °F 0.9 °F 2.5 °F 63% 30.55 in 7.0 mi NW 9.2 mph 18.4 mph N/A Snow Light Snow
4:55 PM 11.1 °F -5.1 °F -0.4 °F 60% 30.56 in 10.0 mi NW 15.0 mph 19.6 mph N/A   Overcast
5:15 PM 10.4 °F -4.1 °F 0.1 °F 63% 30.57 in 10.0 mi NW 11.5 mph - N/A   Scattered Clouds
5:35 PM 10.0 °F -5.9 °F 1.6 °F 69% 30.57 in 10.0 mi NW 13.8 mph 20.7 mph N/A   Clear
5:55 PM 9.9 °F -4.7 °F 0.7 °F 66% 30.58 in 10.0 mi NW 11.5 mph 18.4 mph N/A   Clear
6:15 PM 9.5 °F -5.2 °F 2.3 °F 73% 30.58 in 10.0 mi NW 11.5 mph 16.1 mph N/A   Clear
6:35 PM 9.3 °F -2.8 °F 1.9 °F 72% 30.59 in 10.0 mi NW 8.1 mph - N/A   Clear
6:55 PM 9.1 °F -4.0 °F 0.5 °F 68% 30.60 in 10.0 mi NW 9.2 mph 16.1 mph N/A   Clear
7:15 PM 9.0 °F -2.2 °F -0.4 °F 66% 30.60 in 10.0 mi NW 6.9 mph - N/A   Clear
7:35 PM 8.6 °F -3.7 °F -0.4 °F 67% 30.60 in 10.0 mi NW 8.1 mph - N/A   Clear
7:55 PM 8.4 °F -0.1 °F 0.1 °F 69% 30.60 in 10.0 mi NW 4.6 mph - N/A   Clear
8:15 PM 8.1 °F -0.5 °F 1.6 °F 75% 30.60 in 10.0 mi NW 4.6 mph - N/A   Clear
8:35 PM 8.4 °F -2.8 °F 1.8 °F 74% 30.61 in 10.0 mi NW 6.9 mph - N/A   Clear
8:55 PM 8.2 °F -0.3 °F 1.6 °F 74% 30.61 in 10.0 mi NW 4.6 mph - N/A   Clear
9:15 PM 8.1 °F -0.5 °F 1.6 °F 75% 30.61 in 10.0 mi NW 4.6 mph - N/A   Clear
9:35 PM 7.9 °F -4.6 °F 1.6 °F 75% 30.61 in 10.0 mi WNW 8.1 mph - N/A   Clear
9:55 PM 7.7 °F -3.7 °F 1.8 °F 77% 30.61 in 10.0 mi WNW 6.9 mph - N/A   Clear
10:15 PM 7.7 °F -0.9 °F 1.8 °F 77% 30.61 in 10.0 mi NW 4.6 mph - N/A   Clear
10:35 PM 7.7 °F -3.7 °F 1.8 °F 77% 30.61 in 10.0 mi NW 6.9 mph - N/A   Clear
10:55 PM 7.3 °F -4.1 °F 1.9 °F 79% 30.61 in 10.0 mi WNW 6.9 mph - N/A   Clear
11:15 PM 6.8 °F -2.0 °F 2.1 °F 81% 30.61 in 10.0 mi WNW 4.6 mph - N/A   Clear
11:35 PM 6.6 °F -0.3 °F 2.3 °F 82% 30.61 in 10.0 mi WNW 3.5 mph - N/A   Clear
11:55 PM 6.6 °F -3.7 °F 2.1 °F 82% 30.61 in 10.0 mi WNW 5.8 mph - N/A   Clear